Home   Weather   Košice   Past weeks

Flag for Slovakia Past Weather in Košice, Slovakia — Yesterday and Last 2 Weeks

Now
25 °F

Passing clouds.


Feels Like: 10 °F
Forecast: 19 / 27 °F
Wind: 23 mph from North

Location: Kosice - Barca

Current Time: Jan 17, 2017 at 10:46:05 pm

Latest Report: Jan 17, 2017 at 10:00 pm


Visibility: N/A

Pressure: 30.45 "Hg

Humidity: 80%

Dew Point: 19 °F

Location of KošiceLocation

Past Weather in Košice — Graph

°F

Košice Temperature Yesterday

Maximum temperature yesterday: 25 °F (at 12:00 pm)
Minimum temperature yesterday: 18 °F (at 8:30 pm)
Average temperature yesterday: 22 °F

High & Low Weather Summary for the Past Weeks

 TemperatureHumidityPressure
High34 °F (Jan 4, 11:12 am)100% (Jan 3, 6:30 pm)30.42 "Hg (Jan 3, 6:30 pm)
Low5 °F (Jan 7, 3:00 am)36% (Jan 7, 9:00 pm)29.36 "Hg (Jan 14, 1:30 am)
Average20 °F76%30.02 "Hg
* Reported Jan 2 9:01 pm — Jan 17 9:30 pm, Košice, Weather by CustomWeather, © 2017

Note: Actual official high and low records may vary slightly from our data, if they occured in-between our weather recording intervals... More about our weather records

Advertising

Košice Weather History for the Previous 24 Hours

Scroll right to see more
 ConditionsComfort  
Time TempWeatherWind HumidityBarometerVisibility
9:30 pm
Tue, Jan 17
25 °FLow level haze.25 mph80%30.42 "HgN/A
9:00 pm25 °FPassing clouds.25 mph80%30.42 "HgN/A
8:30 pm25 °FLow level haze.28 mph80%30.42 "HgN/A
8:00 pm25 °FPassing clouds.23 mph74%30.42 "HgN/A
7:30 pm25 °FPassing clouds.21 mph74%30.39 "HgN/A
7:00 pm25 °FLow level haze.23 mph74%30.39 "HgN/A
6:30 pm25 °FLow level haze.24 mph74%30.39 "HgN/A
6:00 pm25 °FLow level haze.26 mph74%30.39 "HgN/A
5:30 pm25 °FLow level haze.25 mph74%30.39 "Hg5 mi
5:00 pm25 °FLow level haze.25 mph74%30.39 "HgN/A
4:30 pm25 °FLow level haze.25 mph74%30.39 "HgN/A
4:00 pm25 °FSunny.25 mph74%30.36 "Hg10 mi
3:30 pm25 °FSunny.24 mph74%30.36 "Hg10 mi
3:00 pm25 °FSunny.24 mph74%30.36 "Hg10 mi
2:30 pm27 °FSunny.24 mph74%30.33 "Hg10 mi
2:00 pm27 °FSunny.25 mph74%30.33 "Hg10 mi
1:30 pm27 °FSunny.25 mph74%30.30 "Hg10 mi
1:00 pm27 °FSunny.22 mph80%30.30 "Hg10 mi
12:30 pm30 °FSunny.21 mph69%30.33 "Hg10 mi
12:00 pm30 °FSunny.21 mph69%30.30 "Hg10 mi
11:30 am30 °FSunny.20 mph69%30.33 "Hg10 mi
11:00 am30 °FSunny.21 mph69%30.33 "Hg10 mi
10:30 am30 °FSunny.22 mph69%30.33 "Hg10 mi
10:00 am28 °FSunny.23 mph69%30.30 "Hg10 mi
9:30 am28 °FSunny.20 mph69%30.30 "Hg10 mi
9:00 am28 °FSunny.20 mph69%30.30 "Hg10 mi
8:30 am28 °FSunny.23 mph69%30.30 "Hg10 mi
8:00 am28 °FSunny.23 mph69%30.27 "Hg10 mi
7:30 am27 °FSunny.23 mph74%30.27 "Hg10 mi
7:00 am27 °FClear.23 mph74%30.27 "Hg10 mi
6:30 am27 °FClear.21 mph74%30.27 "Hg10 mi
6:00 am27 °FClear.14 mph74%30.24 "Hg10 mi
5:30 am27 °FClear.16 mph69%30.24 "Hg10 mi
5:00 am27 °FClear.18 mph69%30.24 "Hg10 mi
4:30 am27 °FClear.20 mph69%30.24 "Hg10 mi
4:00 am27 °FClear.20 mph69%30.24 "Hg10 mi
3:30 am27 °FClear.21 mph69%30.24 "Hg10 mi
3:00 am27 °FClear.22 mph69%30.24 "Hg10 mi
2:30 am27 °FClear.20 mph69%30.24 "Hg10 mi
2:00 am27 °FClear.17 mph69%30.24 "Hg10 mi
1:30 am27 °FClear.16 mph69%30.21 "Hg10 mi
1:00 am27 °FClear.18 mph69%30.21 "Hg10 mi
12:30 am27 °FClear.14 mph74%30.21 "Hg10 mi
12:00 am25 °FClear.14 mph80%30.21 "Hg10 mi
11:30 pm
Mon, Jan 16
25 °FClear.16 mph74%30.21 "Hg10 mi
11:00 pm25 °FClear.17 mph74%30.21 "Hg10 mi
10:30 pm25 °FClear.16 mph74%30.18 "Hg10 mi
10:00 pm23 °FClear.6 mph80%30.18 "Hg10 mi
Weather by CustomWeather, © 2017

See weather overviewHow to use our weather pages